Location: Pandora
(40.9481°N, 83.9611°W)
Time: 12:18:28
(UTC-04:00)

Nauka - Pass Details

Date: 25 September 2021
Orbit: 417 x 423 km, 51.6° (Epoch: 24 October)

Event Time Altitude Azimuth Distance (km) Brightness Sun altitude
Rises 21:56:47 0° 310° (NW) 2,367 ? -28.2°
Reaches altitude 10° 21:59:24 10° 331° (NNW) 1,503 ? -28.7°
Enters shadow 21:59:54 12° 338° (NNW) 1,376 ? -28.8°
